Theta_e
305 305 304 304 304 304 305 307 308 309 311 309 307 309 315 321 325 326 327 329 332 331 331 330 329 327 326 326 325 324 322 322 322 319 320 321 322 321 322 322 322 321 320
302 302 302 301 302 302 303 305 305 305 307 308 309 310 313 318 322 327 327 328 329 330 330 329 329 328 327 327 325 324 322 322 323 319 317 312 316 319 321 322 320 319 321
303 300 300 299 299 299 300 302 301 302 303 305 309 315 313 317 320 323 321 316 318 318 321 324 327 328 327 326 326 324 323 321 321 322 318 311 308 311 315 315 319 320 319
302 301 298 297 298 298 299 300 299 299 300 302 305 309 312 313 318 313 310 307 307 308 311 313 314 314 317 317 320 323 323 321 318 318 320 321 318 310 309 315 314 314 315
300 298 297 297 296 296 295 295 296 295 295 296 299 304 306 308 312 306 303 302 301 302 304 306 306 307 308 311 313 311 312 314 317 315 315 315 315 314 311 306 310 312 313
296 296 296 296 294 293 293 292 292 292 292 292 293 295 297 299 301 302 300 299 298 298 299 301 301 301 303 305 306 306 305 305 305 307 305 302 303 301 303 305 306 303 308
294 293 293 292 292 291 291 291 291 290 289 289 289 291 292 293 295 296 296 295 294 294 295 296 296 297 299 298 299 299 298 298 297 298 296 297 295 297 296 297 294 294 297
293 293 292 291 291 291 290 289 289 288 287 287 287 288 289 290 292 292 292 292 292 292 293 292 292 291 292 292 293 293 294 293 292 292 292 292 293 293 292 292 289 286 289
293 292 291 291 290 289 289 288 288 287 286 285 285 285 286 286 285 286 287 288 288 289 288 288 288 288 289 289 289 290 290 290 290 290 290 290 290 290 290 290 290 288 284
292 291 290 289 288 288 288 287 287 287 285 285 284 284 284 284 284 284 284 284 285 286 286 286 286 286 287 287 288 288 288 288 289 289 287 287 288 288 288 287 287 287 285
293 290 289 289 288 287 287 286 285 285 284 284 283 283 282 282 283 282 283 283 284 284 285 285 285 285 285 286 286 286 287 287 286 286 286 285 286 284 285 286 285 284 283
292 290 289 287 286 286 285 285 283 284 283 283 282 282 281 281 280 280 281 282 282 283 283 284 284 284 284 284 285 285 285 285 284 284 283 283 284 283 284 283 281 282 282
290 289 287 286 285 284 285 284 283 282 282 281 281 280 280 279 279 279 280 281 281 281 282 283 282 282 283 283 284 284 284 283 283 283 281 282 281 279 280 280 279 279 280
291 290 288 286 285 284 284 283 281 281 281 280 279 279 279 278 278 279 279 280 280 280 281 282 282 282 282 282 282 282 282 281 282 281 280 279 278 278 279 279 279 279 278
291 290 289 287 285 284 283 283 283 281 280 279 278 278 279 278 278 278 279 279 279 279 280 280 280 281 281 281 280 280 280 279 278 279 278 278 278 280 280 278 278 277 277
293 293 291 290 287 285 284 282 282 280 280 278 278 277 278 278 278 278 278 279 278 278 279 279 279 279 281 283 282 280 278 278 277 277 277 276 277 278 279 279 279 278 276
295 294 293 291 290 287 285 282 282 280 278 278 277 277 278 278 278 278 278 277 277 278 277 277 278 278 279 282 281 280 278 277 276 276 277 275 276 277 277 277 277 276 278
296 296 295 294 293 290 285 283 280 279 278 277 277 277 277 277 277 277 277 276 277 276 277 277 277 278 279 280 280 278 277 276 275 275 275 274 275 277 276 274 273 274 274
295 296 297 295 292 286 283 280 279 278 278 277 277 277 276 276 276 275 276 276 276 276 276 277 276 277 278 279 278 277 276 274 274 274 274 274 274 277 276 272 272 272 272
292 292 291 287 285 282 280 279 278 278 277 277 277 276 276 275 275 275 275 276 277 276 276 275 276 276 277 279 277 276 275 273 273 273 273 275 275 275 275 271 271 268 269
283 282 282 282 282 279 279 278 278 277 278 277 276 275 275 275 275 275 275 276 276 276 274 274 274 274 275 277 278 276 275 273 271 271 271 271 274 273 273 272 271 269 267
280 278 277 276 275 277 278 277 276 277 276 275 274 273 273 274 274 273 273 275 275 274 273 272 272 272 273 275 276 276 275 274 270 270 270 270 272 271 270 270 270 268 265
277 275 274 274 274 275 277 275 274 274 273 272 271 271 273 274 274 272 273 273 273 272 271 271 270 270 270 272 274 274 273 273 270 270 269 269 269 268 266 267 267 264 262
274 273 272 271 271 272 275 273 273 273 272 271 271 272 272 272 272 273 273 272 272 271 271 269 269 268 268 269 271 271 271 272 269 266 265 266 266 265 264 262 262 261 260
272 272 271 271 271 270 270 270 270 271 271 271 271 271 271 271 271 271 271 271 271 272 269 268 268 266 266 268 272 271 270 268 266 259 259 259 259 259 259 258 258 259 258
270 270 269 269 268 268 267 268 270 272 271 269 269 269 269 269 269 269 269 273 272 273 272 271 269 268 270 272 272 272 272 270 266 257 255 256 256 256 256 256 256 256 255
Wind_Speed
7 5 6 6 7 5 5 5 5 5 4 3 2 2 3 3 4 5 7 8 9 8 7 4 5 4 6 8 6 5 6 5 4 2 5 7 8 10 9 8 7 4 4
5 6 6 4 4 5 5 5 5 4 3 1 2 3 3 4 3 5 6 7 6 5 5 5 4 5 5 7 7 7 4 4 4 4 2 2 3 6 8 3 1 5 4
15 8 7 5 4 5 4 4 4 5 3 5 3 3 3 2 1 2 4 7 8 8 7 5 1 3 4 5 7 7 9 6 3 7 4 3 4 2 3 1 2 5 3
8 8 7 5 5 4 4 4 3 4 4 6 3 3 3 2 3 4 5 6 8 8 7 6 6 5 4 4 3 3 3 4 4 2 4 6 2 2 2 1 3 3 4
9 11 9 7 5 5 4 3 4 6 6 6 5 3 4 4 4 5 7 7 7 8 7 7 7 6 4 4 5 6 6 4 3 2 1 1 1 2 1 2 1 3 4
8 8 6 6 5 4 4 3 5 5 6 6 7 6 6 4 5 5 4 4 4 4 7 7 6 6 4 5 5 7 8 6 6 3 5 3 1 2 2 1 1 1 2
10 10 9 7 6 6 5 4 5 5 5 6 6 5 5 6 6 5 4 5 3 3 5 5 5 5 5 6 6 7 8 7 7 5 5 6 5 3 2 2 2 2 3
6 8 8 7 7 7 6 6 5 4 4 5 5 4 5 3 4 5 4 4 4 4 5 6 7 7 6 6 6 5 6 6 6 8 6 5 5 5 4 2 1 2 3
9 9 7 7 7 6 7 7 6 5 4 4 4 5 5 6 5 6 5 3 3 4 5 6 6 6 7 7 6 6 6 6 6 6 7 6 6 5 4 4 4 1 2
7 7 6 6 6 6 6 6 6 6 5 5 5 4 5 5 5 5 5 5 4 4 5 6 6 6 6 6 6 6 5 8 6 5 8 7 5 5 5 5 5 4 1
8 7 7 7 7 6 6 6 6 7 6 5 4 5 4 5 5 4 4 4 5 5 6 6 6 6 6 5 5 5 6 8 9 8 7 9 7 4 6 5 5 4 3
7 8 8 8 8 8 7 7 6 6 6 5 5 5 5 5 5 4 4 4 5 5 6 6 6 5 5 5 6 6 5 7 8 8 8 8 7 7 7 4 4 4 2
7 7 8 11 10 9 8 7 7 7 6 6 6 6 5 5 5 5 4 5 5 5 6 6 6 5 5 5 5 7 8 8 8 8 7 8 7 6 4 4 3 3 3
9 11 9 12 11 11 11 9 7 7 7 6 6 6 5 5 5 5 5 5 5 6 6 5 6 5 5 5 6 7 7 7 7 9 8 8 6 4 3 5 4 4 4
11 13 13 13 13 11 11 10 10 10 9 8 7 6 6 5 5 5 5 5 6 5 6 6 5 5 6 5 6 6 6 7 8 7 8 7 6 11 9 4 4 5 4
17 15 16 15 15 17 15 13 13 12 11 9 8 7 7 6 6 6 6 6 6 6 7 6 5 5 5 11 12 8 6 7 7 7 7 6 6 7 10 10 11 9 7
14 17 19 18 18 17 18 18 15 12 11 10 9 9 9 8 7 6 6 7 6 7 7 6 5 6 4 11 11 10 6 7 6 6 5 6 5 6 6 7 9 9 11
17 16 15 16 17 14 15 13 14 14 13 12 11 10 10 9 8 7 7 6 6 8 8 7 6 5 5 9 10 9 7 6 7 7 7 6 5 6 6 7 7 7 7
15 15 14 14 11 13 14 15 15 15 14 14 13 13 12 11 11 10 9 8 8 6 8 8 7 6 4 10 8 7 6 6 6 6 7 5 6 9 11 7 6 6 6
10 10 8 4 8 10 14 17 16 17 18 17 15 13 12 12 12 11 10 8 8 8 8 8 8 5 4 8 9 6 4 5 4 5 5 9 7 9 10 5 5 5 6
9 9 5 6 5 8 15 16 16 19 14 13 13 12 11 11 10 10 8 9 9 9 8 8 8 6 3 6 8 8 5 3 2 3 3 3 7 7 8 8 6 6 6
7 6 5 2 3 6 10 10 12 9 12 13 13 12 11 9 8 9 8 8 9 10 9 9 7 5 3 6 7 6 7 7 4 3 2 1 6 6 8 7 9 8 6
4 1 1 1 1 1 5 10 7 11 12 13 11 10 10 9 9 10 10 7 9 8 8 8 7 6 4 2 8 7 6 7 4 4 3 4 6 6 7 10 10 6 4
4 1 3 2 2 3 3 3 8 9 12 12 13 11 10 10 9 6 7 7 7 7 7 7 6 5 5 4 4 4 3 5 5 5 4 4 5 7 6 5 6 5 5
4 4 5 5 6 6 6 5 6 8 8 8 9 12 9 9 8 6 6 6 4 6 6 5 6 6 5 4 6 7 4 5 7 6 2 2 3 3 2 2 3 3 4
4 4 5 6 4 5 7 7 7 7 9 9 8 6 8 7 6 6 6 10 9 10 10 12 8 4 7 6 5 5 7 8 11 4 2 1 2 1 2 2 3 2 2
Wind_Direction
255 177 143 131 118 77 72 47 39 9 22 8 334 310 240 219 221 216 219 220 227 195 189 210 202 200 218 227 221 219 227 241 206 218 247 251 246 247 246 240 248 267 271
202 179 150 134 118 113 70 52 35 5 359 347 278 257 255 259 229 210 210 230 232 214 198 217 218 194 221 230 218 202 214 231 184 216 246 271 288 247 247 253 257 261 247
234 180 178 154 106 85 82 76 31 11 358 336 303 288 247 258 317 73 77 38 56 49 54 45 319 254 223 242 240 228 219 229 222 216 229 260 231 343 20 321 232 270 286
221 174 156 161 151 135 102 87 56 30 11 348 342 292 268 145 58 74 94 78 61 62 60 68 59 55 42 37 21 304 230 218 235 248 239 252 304 311 337 144 280 295 305
180 160 164 161 153 128 113 105 80 46 22 13 10 26 51 79 99 91 84 70 59 53 44 58 60 53 54 36 58 53 49 37 47 355 21 219 48 336 121 244 287 349 304
142 136 139 140 140 121 112 108 83 53 35 30 22 48 70 76 91 94 89 81 70 46 47 59 56 54 37 58 56 61 46 58 66 60 75 53 46 52 330 302 22 23 322
153 151 156 161 161 154 154 126 96 70 50 47 38 37 63 67 83 84 86 92 79 60 53 58 63 64 66 70 77 76 72 64 74 65 74 69 50 48 2 16 335 347 312
165 170 169 170 167 165 152 127 119 108 78 70 57 47 52 64 77 82 93 85 89 75 64 69 62 53 52 57 59 70 76 74 72 73 71 76 55 49 42 50 23 355 356
191 183 171 179 173 166 165 157 144 133 127 116 95 68 68 74 76 69 72 73 72 87 65 63 65 54 58 66 69 74 73 69 68 80 75 70 64 55 38 53 52 58 37
182 187 189 176 178 177 170 157 162 166 159 135 120 108 101 95 96 93 93 88 82 83 79 74 65 56 54 62 74 85 83 101 89 65 84 79 59 56 54 41 47 37 68
203 187 190 194 186 179 173 177 172 164 163 147 130 119 112 100 91 98 102 100 93 87 84 77 73 67 61 51 77 81 89 90 92 86 84 77 63 53 60 49 37 47 359
185 187 199 192 195 194 189 188 177 174 172 158 141 135 125 117 109 103 99 92 87 75 89 83 78 70 63 54 71 83 76 85 89 88 77 69 66 53 55 47 37 36 3
187 202 203 205 202 200 199 194 183 177 170 160 151 151 150 141 132 124 116 104 103 99 98 91 84 78 70 70 65 81 84 77 78 82 81 83 73 57 48 57 19 12 5
208 215 216 214 208 202 199 192 184 174 171 169 164 159 158 150 142 139 131 120 112 108 104 94 94 85 79 58 83 89 94 98 93 93 84 81 70 58 45 52 21 17 18
226 221 222 216 213 206 201 191 188 180 172 170 167 164 151 145 145 140 133 127 122 114 115 107 94 92 99 96 78 82 92 96 85 89 93 69 60 58 53 52 40 26 26
229 229 226 223 214 212 205 195 191 182 169 171 170 156 152 153 158 153 146 133 125 120 112 104 105 100 102 115 113 105 105 104 110 107 117 102 61 53 55 52 49 39 39
236 228 224 221 220 211 200 198 185 164 172 173 165 163 160 162 160 152 145 140 134 125 118 104 88 85 93 111 108 106 104 107 101 99 105 85 44 40 60 52 55 44 46
245 240 231 228 224 209 195 180 169 172 170 170 167 164 162 160 155 152 151 142 142 137 134 128 106 95 99 107 111 110 111 104 104 100 92 84 55 38 45 51 46 42 46
240 244 244 229 215 187 175 167 169 170 170 174 171 170 166 162 163 163 161 155 145 141 130 140 124 109 107 115 114 126 121 109 112 101 80 57 53 44 51 53 39 30 38
252 261 262 216 171 181 166 168 175 174 183 177 171 166 166 166 167 162 161 158 153 149 145 150 133 116 115 117 120 118 123 123 131 127 98 41 53 50 60 66 46 31 20
308 314 287 232 231 160 166 180 177 191 175 160 155 158 162 160 157 153 152 158 151 139 148 143 132 133 137 130 117 122 116 130 127 123 89 37 48 55 55 55 43 33 39
310 328 314 330 122 161 175 186 193 157 147 145 145 148 149 150 148 149 151 155 151 149 153 146 135 130 131 123 110 100 106 119 127 124 80 35 62 61 53 45 36 40 45
272 329 211 114 343 316 191 168 158 144 138 139 142 144 146 147 156 155 160 154 156 159 158 157 149 155 158 124 133 120 115 108 120 112 61 64 67 59 52 34 32 42 34
247 167 133 137 107 30 51 98 144 145 146 147 147 151 156 156 158 158 156 160 168 167 164 157 153 163 165 159 164 156 130 118 108 83 54 72 76 57 57 30 21 18 15
189 186 191 173 161 126 116 121 134 150 150 152 158 151 155 159 153 147 149 149 150 167 155 145 150 163 167 187 182 169 170 146 136 111 77 61 54 46 30 11 3 5 353
178 181 178 159 156 144 135 125 140 162 154 153 160 153 144 144 138 136 130 139 148 151 152 151 148 163 167 172 181 160 128 127 125 76 114 91 63 30 349 331 319 313 310